Location: Potomac
(46.8816°N, 113.5795°W)
Time: 23:44:09
(UTC+00:00)

NANOSAT C BR1 - Pass Details

Date: 25 June 2022
Orbit: 584 x 599 km, 98.0° (Epoch: 18 August)

Event Time Altitude Azimuth Distance (km) Brightness Sun altitude
Rises 09:54:20 0° 12° (NNE) 2,845 ? -13.2°
Reaches altitude 10° 09:56:31 10° 11° (N) 1,941 ? -13.0°
Maximum altitude 10:00:43 79° 285° (WNW) 615 ? -12.6°
Enters shadow 10:03:50 18° 201° (SSW) 1,492 ? -12.3°
